EFW8NM EGKK-LPMA

Flight info

Callsign EFW8NM
Flight time N/A
Altitude 31000
Route IMVUR N63 SAM M195 LORKU DCT EBOMO/N0450F330 DCT COQUE DCT KORUL DCT DEMOS DCT ASMAR DCT VERAM DCT TELMU DCT LIDRO
Aircraft A321/M-SDE3FGHIRWY/LB1

Departure

Time 2026-05-07 12:31
Airport London Gatwick Airport (EGKK)

Arrival

Time N/A
Airport Cristiano Ronaldo International Airport (LPMA)
Time Latitude Longitude Altitude Speed Heading
2026-05-07 11:03 51.15614 -0.16683 205 ft 0 kts 168°
2026-05-07 12:09 51.15623 -0.16687 215 ft 4 kts 167°
2026-05-07 12:09 51.15650 -0.16696 216 ft 4 kts 167°
2026-05-07 12:09 51.15670 -0.16703 214 ft 4 kts 185°
2026-05-07 12:10 51.15690 -0.16690 216 ft 4 kts 241°
2026-05-07 12:10 51.15698 -0.16653 213 ft 4 kts 258°
2026-05-07 12:10 51.15703 -0.16616 213 ft 1 kts 258°
2026-05-07 12:10 51.15703 -0.16615 213 ft 0 kts 258°
2026-05-07 12:15 51.15702 -0.16623 212 ft 0 kts 258°
2026-05-07 12:16 51.15699 -0.16640 211 ft 4 kts 258°
2026-05-07 12:16 51.15693 -0.16690 214 ft 6 kts 258°
2026-05-07 12:16 51.15683 -0.16760 207 ft 7 kts 257°
2026-05-07 12:16 51.15672 -0.16837 213 ft 7 kts 257°
2026-05-07 12:17 51.15661 -0.16920 215 ft 8 kts 257°
2026-05-07 12:17 51.15649 -0.17007 210 ft 9 kts 257°
2026-05-07 12:17 51.15635 -0.17102 205 ft 9 kts 257°
2026-05-07 12:17 51.15621 -0.17199 207 ft 9 kts 257°
2026-05-07 12:18 51.15607 -0.17296 207 ft 8 kts 256°
2026-05-07 12:18 51.15596 -0.17367 210 ft 6 kts 256°
2026-05-07 12:18 51.15583 -0.17419 210 ft 6 kts 239°
2026-05-07 12:18 51.15548 -0.17479 217 ft 9 kts 236°
2026-05-07 12:19 51.15530 -0.17575 211 ft 9 kts 258°
2026-05-07 12:19 51.15516 -0.17677 214 ft 10 kts 258°
2026-05-07 12:19 51.15503 -0.17773 211 ft 9 kts 258°
2026-05-07 12:19 51.15490 -0.17869 205 ft 9 kts 258°
2026-05-07 12:20 51.15477 -0.17969 210 ft 9 kts 257°
2026-05-07 12:20 51.15463 -0.18071 207 ft 10 kts 257°
2026-05-07 12:20 51.15448 -0.18176 213 ft 10 kts 257°
2026-05-07 12:20 51.15431 -0.18261 209 ft 6 kts 235°
2026-05-07 12:21 51.15393 -0.18281 207 ft 6 kts 179°
2026-05-07 12:21 51.15362 -0.18271 208 ft 8 kts 168°
2026-05-07 12:21 51.15282 -0.18244 209 ft 10 kts 167°
2026-05-07 12:21 51.15236 -0.18228 214 ft 4 kts 168°
2026-05-07 12:22 51.15209 -0.18231 205 ft 8 kts 200°
2026-05-07 12:22 51.15187 -0.18314 210 ft 10 kts 264°
2026-05-07 12:22 51.15172 -0.18435 214 ft 13 kts 257°
2026-05-07 12:22 51.15149 -0.18606 205 ft 17 kts 258°
2026-05-07 12:23 51.15123 -0.18793 207 ft 17 kts 258°
2026-05-07 12:23 51.15100 -0.18964 213 ft 11 kts 258°
2026-05-07 12:23 51.15085 -0.19069 215 ft 9 kts 258°
2026-05-07 12:23 51.15073 -0.19162 211 ft 8 kts 257°
2026-05-07 12:24 51.15058 -0.19266 205 ft 10 kts 257°
2026-05-07 12:24 51.15039 -0.19406 212 ft 15 kts 257°
2026-05-07 12:24 51.15016 -0.19569 209 ft 15 kts 257°
2026-05-07 12:24 51.14994 -0.19733 208 ft 15 kts 257°
2026-05-07 12:25 51.14971 -0.19899 214 ft 16 kts 257°
2026-05-07 12:25 51.14947 -0.20069 208 ft 16 kts 257°
2026-05-07 12:25 51.14923 -0.20241 208 ft 16 kts 257°
2026-05-07 12:25 51.14899 -0.20415 209 ft 16 kts 257°
2026-05-07 12:26 51.14875 -0.20590 212 ft 16 kts 257°
2026-05-07 12:26 51.14851 -0.20764 209 ft 16 kts 257°
2026-05-07 12:26 51.14828 -0.20927 211 ft 14 kts 257°
2026-05-07 12:26 51.14812 -0.21047 213 ft 7 kts 257°
2026-05-07 12:27 51.14808 -0.21074 212 ft 0 kts 257°
2026-05-07 12:27 51.14808 -0.21077 212 ft 1 kts 257°
2026-05-07 12:27 51.14799 -0.21135 211 ft 8 kts 252°
2026-05-07 12:27 51.14778 -0.21231 205 ft 12 kts 257°
2026-05-07 12:28 51.14760 -0.21355 205 ft 9 kts 255°
2026-05-07 12:28 51.14714 -0.21404 214 ft 8 kts 179°
2026-05-07 12:28 51.14663 -0.21364 217 ft 8 kts 137°
2026-05-07 12:28 51.14614 -0.21329 207 ft 7 kts 166°
2026-05-07 12:29 51.14564 -0.21302 208 ft 8 kts 153°
2026-05-07 12:29 51.14523 -0.21226 208 ft 10 kts 113°
2026-05-07 12:29 51.14524 -0.21147 206 ft 6 kts 77°
2026-05-07 12:29 51.14532 -0.21086 209 ft 5 kts 78°
2026-05-07 12:30 51.14551 -0.20945 211 ft 37 kts 77°
2026-05-07 12:30 51.14662 -0.20154 210 ft 107 kts 77°
2026-05-07 12:30 51.14861 -0.18713 209 ft 162 kts 77°
2026-05-07 12:30 51.15127 -0.16770 562 ft 186 kts 78°
2026-05-07 12:31 51.15402 -0.14772 1457 ft 186 kts 78°
2026-05-07 12:31 51.15690 -0.12666 1706 ft 205 kts 78°
2026-05-07 12:31 51.16004 -0.10347 1876 ft 225 kts 78°
2026-05-07 12:31 51.16336 -0.07876 2457 ft 227 kts 77°
2026-05-07 12:32 51.16972 -0.05569 2955 ft 233 kts 47°
2026-05-07 12:32 51.18333 -0.04257 2980 ft 231 kts
2026-05-07 12:32 51.19890 -0.04591 3026 ft 229 kts 339°
2026-05-07 12:32 51.21345 -0.05629 3011 ft 229 kts 320°
2026-05-07 12:33 51.22699 -0.10154 3014 ft 250 kts 266°
2026-05-07 12:33 51.22300 -0.12884 3010 ft 256 kts 253°
2026-05-07 12:33 51.21889 -0.15659 3010 ft 258 kts 258°
2026-05-07 12:34 51.21589 -0.18479 3006 ft 258 kts 261°
2026-05-07 12:34 51.21317 -0.21308 3010 ft 258 kts 261°
2026-05-07 12:34 51.21040 -0.24129 3008 ft 258 kts 261°
2026-05-07 12:34 51.20745 -0.26958 3010 ft 258 kts 260°
2026-05-07 12:35 51.20438 -0.29784 3009 ft 259 kts 260°
2026-05-07 12:35 51.20129 -0.32557 3008 ft 258 kts 259°
2026-05-07 12:35 51.19806 -0.35384 3039 ft 260 kts 259°
2026-05-07 12:35 51.19451 -0.38222 3687 ft 262 kts 258°
2026-05-07 12:36 51.19081 -0.41064 3946 ft 261 kts 258°
2026-05-07 12:36 51.18707 -0.43892 4000 ft 260 kts 258°
2026-05-07 12:36 51.18333 -0.46704 4003 ft 259 kts 258°
2026-05-07 12:36 51.17960 -0.49517 4002 ft 259 kts 258°
2026-05-07 12:37 51.17586 -0.52332 3983 ft 259 kts 257°
2026-05-07 12:37 51.16990 -0.55046 4123 ft 262 kts 246°
2026-05-07 12:37 51.16270 -0.57714 4871 ft 262 kts 247°
2026-05-07 12:37 51.15557 -0.60389 5544 ft 263 kts 247°
2026-05-07 12:38 51.14841 -0.63093 6182 ft 266 kts 247°
2026-05-07 12:38 51.14118 -0.65825 6810 ft 269 kts 247°
2026-05-07 12:38 51.13387 -0.68586 7417 ft 272 kts 246°
2026-05-07 12:38 51.12643 -0.71376 8002 ft 275 kts 246°
2026-05-07 12:39 51.11898 -0.74160 8578 ft 278 kts 246°
2026-05-07 12:39 51.11134 -0.77015 9153 ft 282 kts 246°
2026-05-07 12:39 51.10360 -0.79899 9729 ft 285 kts 245°
2026-05-07 12:39 51.09578 -0.82807 10249 ft 289 kts 245°
2026-05-07 12:40 51.08760 -0.85842 10385 ft 307 kts 245°
2026-05-07 12:40 51.07890 -0.89058 10510 ft 324 kts 245°
2026-05-07 12:40 51.06979 -0.92423 10638 ft 340 kts 245°
2026-05-07 12:40 51.06021 -0.95964 10860 ft 352 kts 245°
2026-05-07 12:41 51.05047 -0.99564 11310 ft 356 kts 245°
2026-05-07 12:41 51.04065 -1.03201 11819 ft 359 kts 245°
2026-05-07 12:41 51.03073 -1.06859 12348 ft 362 kts 245°
2026-05-07 12:41 51.02073 -1.10537 12856 ft 364 kts 245°
2026-05-07 12:42 51.01063 -1.14238 13366 ft 367 kts 245°
2026-05-07 12:42 51.00048 -1.17962 13861 ft 369 kts 245°
2026-05-07 12:42 50.99039 -1.21660 14316 ft 371 kts 245°
2026-05-07 12:42 50.98008 -1.25432 14781 ft 372 kts 245°
2026-05-07 12:43 50.96967 -1.29208 15235 ft 374 kts 244°
2026-05-07 12:43 50.95649 -1.32760 15686 ft 375 kts 233°
2026-05-07 12:43 50.93918 -1.35851 16131 ft 376 kts 222°
2026-05-07 12:43 50.91844 -1.38370 16573 ft 377 kts 213°
2026-05-07 12:44 50.89647 -1.40647 17020 ft 379 kts 213°
2026-05-07 12:44 50.87431 -1.42941 17460 ft 381 kts 213°
2026-05-07 12:44 50.85205 -1.45251 17870 ft 383 kts 213°
2026-05-07 12:44 50.82979 -1.47565 18270 ft 385 kts 213°
2026-05-07 12:45 50.80733 -1.49895 18627 ft 387 kts 213°
2026-05-07 12:45 50.78474 -1.52237 18982 ft 388 kts 214°
2026-05-07 12:45 50.76212 -1.54580 19329 ft 390 kts 213°
2026-05-07 12:45 50.73931 -1.56937 19674 ft 392 kts 213°
2026-05-07 12:46 50.71644 -1.59295 20020 ft 394 kts 214°
2026-05-07 12:46 50.69374 -1.61638 20358 ft 396 kts 214°
2026-05-07 12:46 50.67068 -1.64014 20690 ft 397 kts 214°
2026-05-07 12:46 50.64747 -1.66399 21034 ft 399 kts 214°
2026-05-07 12:47 50.62418 -1.68788 21367 ft 401 kts 213°
2026-05-07 12:47 50.60075 -1.71190 21696 ft 403 kts 214°
2026-05-07 12:47 50.57724 -1.73606 22012 ft 405 kts 214°
2026-05-07 12:47 50.55358 -1.76032 22354 ft 406 kts 213°
2026-05-07 12:48 50.52979 -1.78462 22674 ft 408 kts 213°
2026-05-07 12:48 50.50592 -1.80899 22985 ft 410 kts 213°
2026-05-07 12:48 50.48190 -1.83351 23306 ft 412 kts 213°
2026-05-07 12:48 50.45785 -1.85804 23607 ft 414 kts 213°
2026-05-07 12:49 50.43364 -1.88275 23866 ft 416 kts 213°
2026-05-07 12:49 50.40934 -1.90749 24127 ft 417 kts 213°
2026-05-07 12:49 50.38493 -1.93227 24391 ft 419 kts 213°
2026-05-07 12:49 50.36038 -1.95713 24656 ft 420 kts 213°
2026-05-07 12:50 50.33579 -1.98201 24913 ft 422 kts 213°
2026-05-07 12:50 50.31110 -2.00698 25175 ft 423 kts 213°
2026-05-07 12:50 50.28633 -2.03198 25444 ft 424 kts 213°
2026-05-07 12:50 50.26181 -2.05667 25693 ft 426 kts 213°
2026-05-07 12:51 50.23685 -2.08174 25939 ft 427 kts 213°
2026-05-07 12:51 50.21169 -2.10665 26193 ft 429 kts 213°
2026-05-07 12:51 50.18638 -2.13138 26439 ft 430 kts 212°
2026-05-07 12:51 50.16086 -2.15607 26687 ft 432 kts 212°
2026-05-07 12:52 50.13526 -2.18077 26935 ft 433 kts 212°
2026-05-07 12:52 50.10961 -2.20551 27168 ft 434 kts 212°
2026-05-07 12:52 50.08384 -2.23038 27402 ft 436 kts 212°
2026-05-07 12:52 50.05800 -2.25536 27620 ft 437 kts 212°
2026-05-07 12:53 50.03217 -2.28032 27842 ft 438 kts 212°
2026-05-07 12:53 50.00619 -2.30540 28049 ft 440 kts 212°
2026-05-07 12:53 49.98018 -2.33049 28253 ft 441 kts 212°
2026-05-07 12:53 49.95410 -2.35563 28449 ft 442 kts 212°
2026-05-07 12:54 49.92830 -2.38047 28698 ft 441 kts 212°
2026-05-07 12:54 49.90227 -2.40556 28982 ft 440 kts 212°
2026-05-07 12:54 49.87624 -2.43067 29256 ft 439 kts 212°
2026-05-07 12:54 49.85032 -2.45567 29535 ft 439 kts 212°
2026-05-07 12:55 49.82442 -2.48062 29802 ft 438 kts 212°
2026-05-07 12:55 49.79856 -2.50547 30082 ft 437 kts 212°
2026-05-07 12:55 49.77275 -2.53018 30326 ft 436 kts 212°
2026-05-07 12:55 49.74694 -2.55483 30537 ft 436 kts 212°
2026-05-07 12:56 49.72115 -2.57940 30747 ft 435 kts 212°
2026-05-07 12:56 49.69539 -2.60390 30953 ft 435 kts 212°
2026-05-07 12:56 49.64421 -2.65262 31053 ft 430 kts 212°
2026-05-07 12:57 49.59335 -2.70093 31055 ft 428 kts 212°
2026-05-07 12:57 49.54260 -2.74897 31053 ft 428 kts 212°
2026-05-07 12:58 49.49186 -2.79698 31053 ft 428 kts 212°
2026-05-07 12:58 49.44137 -2.84453 31050 ft 428 kts 212°
2026-05-07 12:59 49.39056 -2.89230 31048 ft 428 kts 212°
2026-05-07 12:59 49.33978 -2.93989 31046 ft 428 kts 212°
2026-05-07 13:00 49.28896 -2.98739 31037 ft 427 kts 212°
2026-05-07 13:00 49.23813 -3.03482 31028 ft 427 kts 212°
2026-05-07 13:01 49.18739 -3.08213 31025 ft 427 kts 211°
2026-05-07 13:01 49.13656 -3.12937 31019 ft 427 kts 211°
2026-05-07 13:02 49.08566 -3.17648 31022 ft 427 kts 211°
2026-05-07 13:02 49.03483 -3.22342 31015 ft 427 kts 211°
2026-05-07 13:03 48.98432 -3.27001 31006 ft 427 kts 211°
2026-05-07 13:03 48.93345 -3.31680 31006 ft 427 kts 211°
2026-05-07 13:04 48.88257 -3.36357 30998 ft 427 kts 211°
2026-05-07 13:04 48.83169 -3.41009 30993 ft 427 kts 211°
2026-05-07 13:05 48.78083 -3.45655 30995 ft 427 kts 211°
2026-05-07 13:05 48.72997 -3.50291 31000 ft 427 kts 211°
2026-05-07 13:06 48.67902 -3.54913 31001 ft 427 kts 211°
2026-05-07 13:06 48.62808 -3.59524 30996 ft 427 kts 211°
2026-05-07 13:07 48.57748 -3.64100 30993 ft 427 kts 211°
2026-05-07 13:07 48.52658 -3.68689 30993 ft 426 kts 210°
2026-05-07 13:08 48.47558 -3.73275 30994 ft 427 kts 211°
2026-05-07 13:08 48.42466 -3.77856 30994 ft 426 kts 211°
2026-05-07 13:09 48.37373 -3.82427 30993 ft 426 kts 211°
2026-05-07 13:09 48.32281 -3.86983 30995 ft 426 kts 211°
2026-05-07 13:10 48.27190 -3.91531 30990 ft 425 kts 210°
2026-05-07 13:10 48.22106 -3.96052 30992 ft 425 kts 210°
2026-05-07 13:11 48.17012 -4.00562 30995 ft 425 kts 210°
2026-05-07 13:11 48.11922 -4.05065 30998 ft 425 kts 210°
2026-05-07 13:12 48.06838 -4.09558 31003 ft 424 kts 210°
2026-05-07 13:12 48.02617 -4.13285 31002 ft 424 kts 210°
2026-05-07 13:13 47.97535 -4.17754 31004 ft 424 kts 210°
2026-05-07 13:13 47.92452 -4.22202 31003 ft 423 kts 210°
2026-05-07 13:14 47.87376 -4.26645 31005 ft 423 kts 210°
2026-05-07 13:14 47.82299 -4.31086 31005 ft 423 kts 210°
2026-05-07 13:15 47.77274 -4.35633 31003 ft 422 kts 212°
2026-05-07 13:15 47.72343 -4.40268 31005 ft 422 kts 212°
2026-05-07 13:16 47.67378 -4.44909 31002 ft 422 kts 212°
2026-05-07 13:16 47.62365 -4.49546 31195 ft 426 kts 212°
2026-05-07 13:17 47.59852 -4.51858 31348 ft 427 kts 212°
2026-05-07 13:17 47.57316 -4.54186 31547 ft 427 kts 211°
2026-05-07 13:17 47.54792 -4.56496 31759 ft 426 kts 211°
2026-05-07 13:17 47.52264 -4.58805 31965 ft 426 kts 211°
2026-05-07 13:18 47.49745 -4.61106 32168 ft 426 kts 211°
2026-05-07 13:18 47.47226 -4.63405 32373 ft 425 kts 211°
2026-05-07 13:18 47.44714 -4.65699 32567 ft 425 kts 211°
2026-05-07 13:18 47.42199 -4.67996 32778 ft 424 kts 211°
2026-05-07 13:19 47.39720 -4.70258 32957 ft 424 kts 211°
2026-05-07 13:19 47.37215 -4.72548 33014 ft 424 kts 211°
2026-05-07 13:19 47.32194 -4.77128 33014 ft 424 kts 211°
2026-05-07 13:20 47.27172 -4.81684 33018 ft 424 kts 211°
2026-05-07 13:20 47.22149 -4.86232 33016 ft 424 kts 211°
2026-05-07 13:21 47.17121 -4.90767 33015 ft 424 kts 211°
2026-05-07 13:21 47.12088 -4.95303 33013 ft 424 kts 211°
2026-05-07 13:22 47.07051 -4.99832 33016 ft 425 kts 211°
2026-05-07 13:22 47.02013 -5.04367 33015 ft 425 kts 211°
2026-05-07 13:23 46.96973 -5.08900 33016 ft 425 kts 211°
2026-05-07 13:23 46.91960 -5.13402 33013 ft 426 kts 211°
2026-05-07 13:24 46.86904 -5.17919 33013 ft 426 kts 211°
2026-05-07 13:24 46.81848 -5.22433 33009 ft 426 kts 211°
2026-05-07 13:25 46.76782 -5.26947 33009 ft 427 kts 211°
2026-05-07 13:25 46.71710 -5.31457 33009 ft 427 kts 211°
2026-05-07 13:26 46.66631 -5.35960 33004 ft 428 kts 211°
2026-05-07 13:26 46.61540 -5.40448 33007 ft 428 kts 211°
2026-05-07 13:27 46.56447 -5.44942 33005 ft 428 kts 211°
2026-05-07 13:27 46.51381 -5.49406 33000 ft 429 kts 211°
2026-05-07 13:28 46.46246 -5.53930 32995 ft 429 kts 211°
2026-05-07 13:28 46.41165 -5.58399 32994 ft 430 kts 211°
2026-05-07 13:29 46.36038 -5.62889 32994 ft 431 kts 211°
2026-05-07 13:29 46.30895 -5.67365 32992 ft 431 kts 211°
2026-05-07 13:30 46.25749 -5.71835 32988 ft 432 kts 211°
2026-05-07 13:30 46.20594 -5.76317 32986 ft 433 kts 212°
2026-05-07 13:31 46.15440 -5.80795 32986 ft 433 kts 212°
2026-05-07 13:31 46.10266 -5.85263 32985 ft 434 kts 212°
2026-05-07 13:32 46.05087 -5.89738 32981 ft 434 kts 212°
2026-05-07 13:32 45.99933 -5.94184 32980 ft 435 kts 212°
2026-05-07 13:33 45.94734 -5.98654 32977 ft 436 kts 212°
2026-05-07 13:33 45.89519 -6.03122 32976 ft 437 kts 212°
2026-05-07 13:34 45.81692 -6.09833 32970 ft 438 kts 212°
2026-05-07 13:35 45.76456 -6.14300 32970 ft 438 kts 212°
2026-05-07 13:35 45.71204 -6.18755 32974 ft 439 kts 212°
2026-05-07 13:36 45.65958 -6.23213 32968 ft 439 kts 212°
2026-05-07 13:36 45.60688 -6.27681 32970 ft 440 kts 212°
2026-05-07 13:37 45.55459 -6.32108 32965 ft 440 kts 212°
2026-05-07 13:37 45.50179 -6.36561 32962 ft 441 kts 212°
2026-05-07 13:38 45.44885 -6.41008 32971 ft 442 kts 212°
2026-05-07 13:38 45.39588 -6.45461 32963 ft 442 kts 213°
2026-05-07 13:39 45.34287 -6.49912 32960 ft 443 kts 212°
2026-05-07 13:39 45.28968 -6.54355 32958 ft 444 kts 212°
2026-05-07 13:40 45.23642 -6.58798 32952 ft 444 kts 213°
2026-05-07 13:40 45.18350 -6.63216 32959 ft 445 kts 213°
2026-05-07 13:41 45.13014 -6.67651 32944 ft 445 kts 213°
2026-05-07 13:41 45.07664 -6.72078 32950 ft 446 kts 213°
2026-05-07 13:42 45.02308 -6.76509 32936 ft 447 kts 213°
2026-05-07 13:42 44.96935 -6.80936 32943 ft 447 kts 213°
2026-05-07 13:43 44.91551 -6.85368 32933 ft 448 kts 213°
2026-05-07 13:43 44.86164 -6.89797 32933 ft 448 kts 213°
2026-05-07 13:44 44.80787 -6.94259 32935 ft 448 kts 214°
2026-05-07 13:44 44.75558 -6.98918 32935 ft 448 kts 216°